Location: ??????????
(54.4061°N, 22.6114°E)
Time: 01:23:47
(UTC+00:00)

STARLINK-77 - Pass Details

Date: 23 October 2019
Orbit: 548 x 551 km, 53.0° (Epoch: 15 November)

Event Time Altitude Azimuth Distance (km) Brightness Sun altitude
Rises 17:36:04 0° 280° (W) 2,721 8.7 -21.2°
Reaches altitude 10° 17:38:20 10° 275° (W) 1,826 7.4 -21.5°
Maximum altitude 17:42:23 54° 199° (SSW) 675 4.0 -22.1°
Enters shadow 17:42:41 52° 180° (S) 686 3.9 -22.2°
